DMSP 5D-2 F13 DEB, 40473

Orbit data source: Space-Track

DMSP 5D-2 F13 DEB, 40473 is space debris in SSO originally from a launch on Fri, 24 Mar 1995 UTC launched from the Air Force Western Test Range (AFWTR). Debris objects in space refer to the collection of defunct objects orbiting the Earth. Examples of debris include non-operational satellites, rocket bodies, and fragments generated from explosions, collisions, or faulty payload assembly.

Loading next visibility...
Identifier
40473, 1995-015BR
Orbit
SSO
Country
Flag of USUS
Related business
Manufacturer
Unknown
Mission
Spacecraft
Bus & Motor
Unknown
Mass
Unknown
Launch date (UTC)
1995-03-24 (31 years ago)
Launch vehicle
Unknown
Launch site
Air Force Western Test Range (AFWTR)
Object type
Payload
Rocket body
Debris
Shape & HBR
Unknown shape, 0.1 m
Radar Cross Section
Small (<0.1 m²)

Expand to show TLE details & history
Last TLE update: 11 hours ago

TLE from 11 hours ago
0 DMSP 5D-2 F13 DEB
1 40473U 95015BR  26121.39657858  .00001833  00000-0  11999-2 0  9997
2 40473  98.7161 326.3299 0121833 146.0470 214.8569 13.99762582566011
Epoch: 2026-05-01T09:31Z
TLE epoch observation values (Epoch: 2026-05-01T09:31:04.389Z)
Latitude
-0°
Longitude
-35.76782°
Altitude
970.575 km
Speed
7.329 km/s
True Right ascension
21h 45m 19s
True Declination
0° 00' 00"
Sunlit
Object was in daylight at epoch
Visualization orbit readout
Latitude
Unknown
Longitude
Unknown
Altitude
Unknown
Speed
Unknown
Apparent Right ascension
Unknown
Apparent Declination
Unknown
Sunlit
N/A
Visualization observer readout
Local Sidereal Time
03:45:41
Azimuth
Unknown
Elevation
Unknown
Doppler factor
Unknown
Orbital elements
Apogee altitude
980.375 km
Perigee altitude
803.231 km
Semi-major axis
7,269.94 km
Eccentricity
0.01218
Inclination
98.7161°
RAAN
326.3299°
Arg. of periapsis
146.047°
True anomaly
214.06886°
Mean anomaly
214.8569°
Eccentric anomaly
214.4619°
Mean motion
3.50144 °/min
Orbital period
102.81 mins
BSTAR
0.0011999
Loading maneuver chart data...
Computing Atmospheric mass density...

Documentation

Showing up to 5 results
|